Location: Wharf Road Observatory
(44.7802°N, 65.6070°W)
Time: 02:04:30
(UTC-04:00)

BlueWalker 3 - Visible Passes

Search period start: 23 February 2024 00:00
Search period end: 04 March 2024 00:00
Orbit: 486 x 500 km, 53.2° (Epoch: 22 February)

Date Brightness Start Highest point End Pass type
(mag) Time Alt. Az. Time Alt. Az. Time Alt. Az.
23 Feb 3.6 19:52:24 10° NW 19:55:26 22° N 19:56:01 21° NNE visible
24 Feb 3.7 19:28:36 10° NW 19:31:37 22° N 19:33:13 17° NNE visible
24 Feb 5.0 21:07:18 10° NW 21:07:42 12° NW 21:07:42 12° NW visible
25 Feb 3.7 19:04:45 10° NW 19:07:47 22° N 19:10:24 12° NE visible
25 Feb 4.3 20:43:29 10° NW 20:44:52 19° NNW 20:44:52 19° NNW visible
26 Feb 3.7 18:40:54 10° WNW 18:43:56 22° N 18:46:58 10° NE visible
26 Feb 3.6 20:19:38 10° NW 20:22:02 26° NNW 20:22:02 26° NNW visible
27 Feb 3.1 19:55:47 10° NW 19:59:10 30° NNE 19:59:12 30° NNE visible
28 Feb 3.1 19:31:54 10° NW 19:35:17 30° NNE 19:36:21 25° NE visible
28 Feb 4.9 21:10:04 10° WNW 21:10:50 15° WNW 21:10:50 15° WNW visible
29 Feb 3.1 19:07:59 10° NW 19:11:21 29° NNE 19:13:32 17° ENE visible
29 Feb 3.9 20:46:10 10° WNW 20:48:01 27° WNW 20:48:01 27° WNW visible
01 Mar 3.1 18:44:04 10° NW 18:47:25 29° NNE 18:50:45 10° ENE visible
01 Mar 2.5 20:22:14 10° WNW 20:25:14 54° WNW 20:25:14 54° WNW visible
02 Mar 1.8 19:58:17 10° WNW 20:02:04 82° SW 20:02:30 67° SE visible
03 Mar 1.8 19:34:18 10° WNW 19:38:06 85° SW 19:39:51 30° SE visible
03 Mar 5.0 21:13:59 10° W 21:14:20 11° WSW 21:14:20 11° WSW visible
